Location: Trebic
(49.2170°N, 15.8830°E)
Time: 00:21:18
(UTC+02:00)

SR - All Passes

Search period start: 16 July 2019 00:00
Search period end: 26 July 2019 00:00
Orbit: 581 x 875 km, 66.7° (Epoch: 15 July)

Date Brightness Start Highest point End Pass type
(mag) Time Alt. Az. Time Alt. Az. Time Alt. Az.
16 Jul - 00:40:01 10° W 00:43:33 23° NW 00:47:16 10° NNE visible
16 Jul - 02:26:53 10° NNW 02:27:24 10° N 02:27:55 10° N visible
16 Jul - 04:09:59 10° N 04:11:45 12° NNE 04:13:34 10° NE visible
16 Jul - 05:50:59 10° NNW 05:55:22 30° NE 06:00:04 10° ESE daylight
16 Jul - 07:32:44 10° NW 07:37:45 61° WSW 07:43:10 10° SSE daylight
16 Jul - 09:18:17 10° W 09:18:58 10° WSW 09:19:39 10° WSW daylight
16 Jul - 22:07:45 10° S 22:11:35 33° ESE 22:15:37 10° NE visible
16 Jul - 23:49:32 10° WSW 23:53:34 37° NW 23:57:51 10° NNE visible
17 Jul - 01:35:04 10° NW 01:37:01 12° NNW 01:39:02 10° N visible
17 Jul - 05:01:37 10° NNW 05:05:19 21° NNE 05:09:15 10° E daylight
17 Jul - 06:43:04 10° NW 06:48:08 78° NE 06:53:38 10° SE daylight
17 Jul - 08:26:01 10° WNW 08:29:46 20° WSW 08:33:40 10° SSW daylight
17 Jul - 21:19:34 10° SSE 21:22:19 17° ESE 21:25:10 10° ENE daylight
17 Jul - 22:59:30 10° SW 23:03:46 67° NW 23:08:19 10° NNE visible
18 Jul - 00:43:51 10° WNW 00:46:46 17° NNW 00:49:47 10° NNE visible
18 Jul - 04:12:18 10° N 04:15:08 15° NNE 04:18:04 10° ENE visible
18 Jul - 05:53:32 10° NNW 05:58:23 46° NE 06:03:36 10° ESE daylight
18 Jul - 07:35:43 10° NW 07:40:24 36° WSW 07:45:24 10° S daylight
18 Jul - 22:09:56 10° SSW 22:14:09 63° ESE 22:18:39 10° NE visible
18 Jul - 23:53:01 10° W 23:56:38 24° NW 00:00:26 10° NNE visible
19 Jul - 01:39:36 10° NNW 01:40:27 10° N 01:41:19 10° N visible
19 Jul - 03:23:04 10° N 03:24:49 12° NNE 03:26:35 10° NE visible
19 Jul - 05:04:06 10° NNW 05:08:28 29° NE 05:13:09 10° E daylight
19 Jul - 06:45:50 10° NW 06:50:54 65° WSW 06:56:22 10° SSE daylight
19 Jul - 08:30:41 10° W 08:32:09 11° WSW 08:33:38 10° WSW daylight
19 Jul - 21:20:57 10° S 21:24:44 31° ESE 21:28:43 10° NE daylight
19 Jul - 23:02:35 10° WSW 23:06:40 39° NW 23:11:01 10° NNE visible
20 Jul - 00:47:59 10° NW 00:50:05 13° NNW 00:52:15 10° N visible
20 Jul - 04:14:44 10° NNW 04:18:25 20° NNE 04:22:18 10° E visible
20 Jul - 05:56:11 10° NNW 06:01:16 74° NE 06:06:47 10° SE daylight
20 Jul - 07:39:03 10° WNW 07:42:56 21° WSW 07:47:00 10° SSW daylight
20 Jul - 20:32:52 10° SE 20:35:28 16° ESE 20:38:11 10° ENE daylight
20 Jul - 22:12:35 10° SW 22:16:53 71° NW 22:21:29 10° NNE visible
20 Jul - 23:56:49 10° WNW 23:59:50 17° NNW 00:02:58 10° NNE visible
21 Jul - 03:25:26 10° N 03:28:12 15° NNE 03:31:06 10° ENE visible
21 Jul - 05:06:39 10° NNW 05:11:30 44° NE 05:16:42 10° ESE daylight
21 Jul - 06:48:47 10° NW 06:53:33 38° WSW 06:58:39 10° S daylight
21 Jul - 21:23:04 10° SSW 21:27:17 60° ESE 21:31:47 10° NE visible
21 Jul - 23:06:02 10° W 23:09:43 25° NW 23:13:37 10° NNE visible
22 Jul - 00:52:25 10° NNW 00:53:31 11° NNW 00:54:38 10° N visible
22 Jul - 02:36:10 10° N 02:37:52 12° NNE 02:39:37 10° NE visible
22 Jul - 04:17:13 10° NNW 04:21:35 29° NE 04:26:13 10° E visible
22 Jul - 05:58:56 10° NW 06:04:03 68° WSW 06:09:34 10° SSE daylight
22 Jul - 07:43:23 10° W 07:45:20 12° WSW 07:47:18 10° SW daylight
22 Jul - 20:34:09 10° S 20:37:53 30° ESE 20:41:48 10° NE daylight
22 Jul - 22:15:38 10° WSW 22:19:45 41° NW 22:24:10 10° NNE visible
23 Jul - 00:00:54 10° NW 00:03:09 13° NNW 00:05:27 10° N visible
23 Jul - 03:27:51 10° NNW 03:31:30 20° NNE 03:35:21 10° ENE visible
23 Jul - 05:09:18 10° NNW 05:14:24 71° NE 05:19:55 10° SE daylight
23 Jul - 06:52:04 10° WNW 06:56:06 23° WSW 07:00:20 10° SSW daylight
23 Jul - 19:46:10 10° SE 19:48:38 15° ESE 19:51:10 10° ENE daylight
23 Jul - 21:25:41 10° SW 21:29:59 75° NW 21:34:37 10° NNE visible
23 Jul - 23:09:48 10° WNW 23:12:54 18° NNW 23:16:09 10° NNE visible
24 Jul - 02:38:32 10° N 02:41:17 15° NNE 02:44:09 10° ENE visible
24 Jul - 04:19:47 10° NNW 04:24:37 43° NE 04:29:49 10° ESE visible
24 Jul - 06:01:52 10° NW 06:06:43 40° WSW 06:11:53 10° S daylight
24 Jul - 20:36:12 10° SSW 20:40:24 56° ESE 20:44:54 10° NE daylight
24 Jul - 22:19:03 10° W 22:22:47 26° NW 22:26:47 10° NNE visible
25 Jul - 00:05:16 10° NNW 00:06:34 11° NNW 00:07:53 10° N visible
25 Jul - 01:49:16 10° N 01:50:56 12° NNE 01:52:39 10° NE visible
25 Jul - 03:30:21 10° NNW 03:34:41 28° NE 03:39:18 10° E visible
25 Jul - 05:12:02 10° NW 05:17:11 72° WSW 05:22:45 10° SSE daylight
25 Jul - 06:56:13 10° W 06:58:31 13° WSW 07:00:52 10° SW daylight
25 Jul - 19:47:21 10° S 19:51:01 28° ESE 19:54:53 10° NE daylight
25 Jul - 21:28:41 10° WSW 21:32:51 43° NW 21:37:19 10° NNE visible
25 Jul - 23:13:50 10° NW 23:16:13 14° NNW 23:18:39 10° N visible
